TimeCDT,TemperatureF,Dew PointF,Humidity,Sea Level PressureIn,VisibilityMPH,Wind Direction,Wind SpeedMPH,Gust SpeedMPH,PrecipitationIn,Events,Conditions,WindDirDegrees,DateUTC
12:53 AM,73.0,71.1,93,30.12,10.0,NE,3.5,-,N/A,,Clear,50,2013-08-25 05:53:00
1:53 AM,73.0,70.0,90,30.10,10.0,Calm,Calm,-,N/A,,Clear,0,2013-08-25 06:53:00
2:53 AM,72.0,70.0,93,30.12,10.0,East,4.6,-,N/A,,Clear,90,2013-08-25 07:53:00
3:53 AM,72.0,70.0,93,30.11,10.0,Calm,Calm,-,N/A,,Clear,0,2013-08-25 08:53:00
4:53 AM,71.1,69.1,93,30.11,10.0,Calm,Calm,-,N/A,,Clear,0,2013-08-25 09:53:00
5:53 AM,71.1,69.1,93,30.12,10.0,Calm,Calm,-,N/A,,Clear,0,2013-08-25 10:53:00
6:53 AM,71.1,69.1,93,30.14,10.0,NE,4.6,-,N/A,,Clear,40,2013-08-25 11:53:00
7:53 AM,73.9,70.0,87,30.15,10.0,Variable,5.8,-,N/A,,Clear,0,2013-08-25 12:53:00
8:53 AM,77.0,71.1,82,30.17,10.0,East,9.2,-,N/A,,Clear,80,2013-08-25 13:53:00
9:53 AM,81.0,71.1,72,30.17,10.0,East,8.1,-,N/A,,Clear,80,2013-08-25 14:53:00
10:53 AM,82.0,71.1,69,30.18,10.0,East,8.1,-,N/A,,Scattered Clouds,90,2013-08-25 15:53:00
11:09 AM,82.4,71.6,70,30.20,10.0,Variable,6.9,-,N/A,,Mostly Cloudy,0,2013-08-25 16:09:00
11:35 AM,82.4,71.6,70,30.19,10.0,SE,9.2,-,N/A,,Mostly Cloudy,130,2013-08-25 16:35:00
11:43 AM,82.4,71.6,70,30.19,10.0,East,6.9,-,N/A,,Mostly Cloudy,80,2013-08-25 16:43:00
11:53 AM,84.0,72.0,67,30.17,10.0,ENE,10.4,-,N/A,,Scattered Clouds,70,2013-08-25 16:53:00
12:53 PM,84.0,71.1,65,30.16,10.0,ENE,6.9,16.1,N/A,,Mostly Cloudy,70,2013-08-25 17:53:00
1:29 PM,84.2,71.6,66,30.17,10.0,East,8.1,-,N/A,,Mostly Cloudy,90,2013-08-25 18:29:00
1:37 PM,84.2,71.6,66,30.17,10.0,Variable,6.9,-,N/A,,Scattered Clouds,0,2013-08-25 18:37:00
1:53 PM,84.9,72.0,65,30.15,10.0,ENE,8.1,-,N/A,,Mostly Cloudy,60,2013-08-25 18:53:00
2:53 PM,82.9,73.9,74,30.14,10.0,SE,5.8,-,0.01,,Mostly Cloudy,140,2013-08-25 19:53:00
3:11 PM,80.6,73.4,79,30.15,1.8,Variable,4.6,16.1,0.08,Rain,Heavy Rain,0,2013-08-25 20:11:00
3:19 PM,78.8,75.2,89,30.15,3.0,East,3.5,-,0.08,Rain,Light Rain,80,2013-08-25 20:19:00
3:53 PM,84.0,75.9,76,30.12,10.0,Variable,3.5,-,0.08,,Scattered Clouds,0,2013-08-25 20:53:00
4:53 PM,82.9,73.9,74,30.12,10.0,NE,5.8,-,N/A,,Scattered Clouds,50,2013-08-25 21:53:00
5:53 PM,82.0,73.0,74,30.13,10.0,Calm,Calm,-,N/A,,Clear,0,2013-08-25 22:53:00
6:53 PM,80.1,73.0,79,30.14,10.0,SE,3.5,-,N/A,,Scattered Clouds,130,2013-08-25 23:53:00
7:53 PM,79.0,73.0,82,30.14,10.0,Variable,3.5,-,0.00,Rain,Light Rain,0,2013-08-26 00:53:00
8:53 PM,77.0,72.0,84,30.16,10.0,Calm,Calm,-,0.00,,Partly Cloudy,0,2013-08-26 01:53:00
9:53 PM,75.9,72.0,87,30.18,10.0,Variable,4.6,-,N/A,,Partly Cloudy,0,2013-08-26 02:53:00
10:53 PM,75.9,72.0,87,30.18,10.0,Calm,Calm,-,N/A,,Overcast,0,2013-08-26 03:53:00
11:53 PM,75.0,72.0,90,30.18,10.0,NE,3.5,-,N/A,,Clear,40,2013-08-26 04:53:00